EW9092 Weather Reports


Display with metric or nautical units.
time (UTC)temp
F
wind
direction
speed
MPH
gust
MPH
rain 1hr
in
rain 24hr
in
rain mn
in
humidity
%
barometer
mb
20260902001857 93 337 3.0 8.0 0.00 0.00 0.00 35 1014.2
20260902001352 93 214 4.0 10.0 0.00 0.00 0.00 35 1014.2
20260902000848 93 249 3.0 10.0 0.00 0.00 0.00 35 1014.2
20260902000331 93 221 3.0 8.0 0.00 0.00 0.00 34 1014.2
20260902000053 93 253 4.0 8.0 0.00 0.00 0.00 35 1014.2
20260901235321 93 288 4.0 8.0 0.00 0.00 0.00 36 1014.2
20260901234811 93 285 4.0 9.0 0.00 0.00 0.00 36 1014.4
20260901234525 94 263 4.0 9.0 0.00 0.00 0.00 35 1014.4
20260901233759 94 291 3.0 8.0 0.00 0.00 0.00 35 1014.5
20260901233248 94 287 3.0 8.0 0.00 0.00 0.00 34 1014.6
20260901233007 94 252 4.0 8.0 0.00 0.00 0.00 35 1014.5
20260901232237 94 238 4.0 11.0 0.00 0.00 0.00 35 1014.6
20260901231726 94 282 4.0 11.0 0.00 0.00 0.00 36 1014.6
20260901231221 94 300 4.0 8.0 0.00 0.00 0.00 35 1014.7
20260901230711 94 283 4.0 8.0 0.00 0.00 0.00 35 1014.7
20260901230200 94 288 4.0 10.0 0.00 0.00 0.00 34 1014.7
20260901225655 94 271 3.0 10.0 0.00 0.00 0.00 33 1014.7
20260901225148 94 259 3.0 6.0 0.00 0.00 0.00 33 1014.8
20260901224900 94 286 4.0 8.0 0.00 0.00 0.00 34 1014.8
20260901224133 94 283 4.0 10.0 0.00 0.00 0.00 33 1014.8
20260901223845 94 260 4.0 10.0 0.00 0.00 0.00 33 1014.9
20260901223117 94 262 4.0 9.0 0.00 0.00 0.00 34 1014.9
20260901222609 95 359 3.0 9.0 0.00 0.00 0.00 33 1014.9
20260901222328 94 251 3.0 8.0 0.00 0.00 0.00 33 1015.0
20260901221554 94 214 4.0 8.0 0.00 0.00 0.00 34 1015.1
20260901221317 94 205 4.0 8.0 0.00 0.00 0.00 34 1015.2
20260901220543 94 224 4.0 9.0 0.00 0.00 0.00 34 1015.1
20260901220035 94 276 2.0 9.0 0.00 0.00 0.00 34 1015.2
20260901215530 94 233 3.0 9.0 0.00 0.00 0.00 34 1015.3
20260901215025 94 293 3.0 9.0 0.00 0.00 0.00 34 1015.4
20260901214515 94 315 3.0 8.0 0.00 0.00 0.00 35 1015.5
20260901214007 94 0 3.0 7.0 0.00 0.00 0.00 35 1015.5
20260901213503 94 277 3.0 7.0 0.00 0.00 0.00 34 1015.7
20260901212952 94 283 3.0 7.0 0.00 0.00 0.00 34 1015.7
20260901212446 94 276 3.0 9.0 0.00 0.00 0.00 35 1015.9
20260901211941 94 212 2.0 9.0 0.00 0.00 0.00 34 1015.9
20260901211429 94 213 2.0 6.0 0.00 0.00 0.00 34 1016.1
20260901210923 94 280 2.0 5.0 0.00 0.00 0.00 34 1016.1
20260901210419 94 252 2.0 6.0 0.00 0.00 0.00 34 1016.2
20260901205907 93 262 2.0 6.0 0.00 0.00 0.00 34 1016.2
20260901205402 93 291 2.0 6.0 0.00 0.01 0.00 34 1016.2
20260901204857 93 203 2.0 7.0 0.00 0.02 0.00 35 1016.3
20260901204828 93 231 3.0 9.0 0.00 0.03 0.00 35 1016.4
20260901204100 93 262 4.0 9.0 0.00 0.04 0.00 35 1016.5
20260901203335 93 262 4.0 9.0 0.00 0.05 0.00 35 1016.6
20260901203055 94 231 3.0 7.0 0.00 0.05 0.00 36 1016.6
20260901202331 94 98 3.0 7.0 0.00 0.06 0.00 36 1016.7
20260901201833 94 214 2.0 7.0 0.00 0.07 0.00 36 1016.7
20260901201331 93 192 2.0 9.0 0.00 0.08 0.00 36 1016.8
20260901201102 92 257 2.0 9.0 0.00 0.10 0.00 37 1017.0
20260901200331 92 266 2.0 8.0 0.00 0.11 0.00 36 1017.0
20260901195832 92 271 2.0 6.0 0.00 0.13 0.00 37 1017.1
20260901195335 92 264 2.0 7.0 0.00 0.13 0.00 36 1017.1
20260901194835 92 251 2.0 7.0 0.00 0.14 0.00 37 1017.1
20260901194331 92 323 2.0 6.0 0.00 0.15 0.00 37 1017.1
20260901193831 92 44 3.0 8.0 0.00 0.18 0.00 37 1017.3
20260901193555 91 221 3.0 8.0 0.00 0.25 0.00 37 1017.4
20260901192831 92 211 2.0 5.0 0.00 0.31 0.00 38 1017.4
20260901192325 91 281 2.0 5.0 0.00 0.32 0.00 38 1017.5
20260901191822 92 267 2.0 5.0 0.00 0.32 0.00 36 1017.5
20260901191322 92 229 2.0 6.0 0.00 0.32 0.00 36 1017.5
20260901191050 92 208 2.0 6.0 0.00 0.32 0.00 38 1017.6
20260901190325 91 235 2.0 6.0 0.00 0.33 0.00 39 1017.7
20260901185820 90 255 2.0 6.0 0.00 0.33 0.00 37 1017.7
20260901185322 92 278 1.0 6.0 0.00 0.33 0.00 36 1017.8
20260901184821 91 156 1.0 3.0 0.00 0.34 0.00 39 1017.7
20260901184545 91 15 1.0 5.0 0.00 0.35 0.00 37 1017.7
20260901183818 90 151 2.0 5.0 0.00 0.38 0.00 39 1017.9
20260901183318 90 227 2.0 6.0 0.00 0.38 0.00 38 1017.9
20260901182824 90 280 2.0 6.0 0.00 0.38 0.00 38 1017.9
20260901182320 91 103 2.0 6.0 0.00 0.38 0.00 37 1017.8
20260901181818 92 229 1.0 3.0 0.00 0.38 0.00 38 1018.0
20260901181319 91 141 2.0 4.0 0.00 0.38 0.00 38 1018.0
20260901180814 90 167 1.0 4.0 0.00 0.38 0.00 39 1018.0
20260901180313 89 207 1.0 4.0 0.00 0.38 0.00 39 1018.0
20260901175811 89 353 1.0 5.0 0.00 0.38 0.00 38 1018.0
20260901175311 89 295 1.0 5.0 0.00 0.38 0.00 39 1018.1
20260901175036 89 267 2.0 5.0 0.00 0.38 0.00 42 1018.1
20260901174308 89 255 1.0 6.0 0.00 0.38 0.00 39 1018.1
20260901173809 89 255 0.0 6.0 0.00 0.38 0.00 40 1018.1
20260901173535 89 281 0.0 2.0 0.00 0.38 0.00 41 1018.1
20260901173033 89 227 1.0 4.0 0.00 0.38 0.00 40 1018.2
20260901172533 89 163 1.0 4.0 0.00 0.38 0.00 40 1018.2
20260901171808 89 208 1.0 5.0 0.00 0.38 0.00 42 1018.4
20260901171310 88 208 1.0 5.0 0.00 0.38 0.00 41 1018.4
20260901170809 87 155 1.0 4.0 0.00 0.38 0.00 45 1018.2
20260901170310 86 289 1.0 3.0 0.00 0.38 0.00 43 1018.4
20260901170032 86 267 0.0 4.0 0.00 0.38 0.00 44 1018.2
20260901165311 86 329 0.0 4.0 0.00 0.38 0.00 45 1018.2
20260901164809 86 234 0.0 2.0 0.00 0.38 0.00 46 1018.2
20260901164534 85 234 1.0 4.0 0.00 0.38 0.00 48 1018.2
20260901164032 85 217 1.0 4.0 0.00 0.38 0.00 49 1018.2
20260901163310 85 264 0.0 2.0 0.00 0.38 0.00 51 1018.2
20260901162806 84 357 0.0 3.0 0.00 0.38 0.00 53 1018.2
20260901162307 83 333 1.0 3.0 0.00 0.38 0.00 52 1018.2
20260901161807 83 328 0.0 2.0 0.00 0.38 0.00 53 1018.2
20260901161308 83 321 1.0 3.0 0.00 0.38 0.00 55 1018.2
20260901160805 83 34 0.0 3.0 0.00 0.38 0.00 54 1018.2
20260901160305 83 110 0.0 0.0 0.00 0.38 0.00 55 1018.1
20260901155805 82 124 0.0 0.0 0.00 0.38 0.00 58 1018.2
20260901155306 82 65 0.0 0.0 0.00 0.38 0.00 57 1018.2
20260901154804 81 65 0.0 0.0 0.00 0.38 0.00 59 1018.2
20260901154525 80 65 0.0 2.0 0.00 0.38 0.00 59 1018.4
20260901153802 81 72 0.0 2.0 0.00 0.38 0.00 58 1018.4
20260901153740 81 19 0.0 2.0 0.00 0.38 0.00 57 1018.4
20260901152803 81 101 0.0 2.0 0.00 0.38 0.00 60 1018.4
20260901152738 81 101 0.0 2.0 0.00 0.38 0.00 59 1018.4
20260901151802 80 101 0.0 0.0 0.00 0.38 0.00 60 1018.5
20260901151404 80 101 0.0 0.0 0.00 0.38 0.00 61 1018.4
20260901150257 78 101 0.0 0.0 0.00 0.38 0.00 65 1018.4
20260901150015 78 101 0.0 1.0 0.00 0.38 0.00 66 1018.4
20260901145254 78 101 0.0 1.0 0.00 0.38 0.00 65 1018.2
20260901144750 78 101 0.0 0.0 0.00 0.38 0.00 67 1018.4
20260901144250 78 101 0.0 1.0 0.00 0.38 0.00 67 1018.4
20260901143746 78 101 0.0 1.0 0.00 0.38 0.00 66 1018.2
20260901143246 78 101 0.0 0.0 0.00 0.38 0.00 66 1018.2
20260901142747 77 101 0.0 0.0 0.00 0.38 0.00 69 1018.2
20260901142247 76 101 0.0 0.0 0.00 0.38 0.00 71 1018.2
20260901141747 76 101 0.0 0.0 0.00 0.38 0.00 71 1018.2
20260901141242 75 101 0.0 0.0 0.00 0.38 0.00 72 1018.1
20260901140743 74 101 0.0 0.0 0.00 0.38 0.00 74 1018.2
20260901140244 74 101 0.0 1.0 0.00 0.38 0.00 75 1018.0
20260901135742 73 101 1.0 3.0 0.00 0.38 0.00 76 1018.0
20260901135517 73 120 1.0 3.0 0.00 0.38 0.00 76 1018.0
20260901134735 73 118 0.0 3.0 0.00 0.38 0.00 77 1017.9
20260901134230 72 115 0.0 3.0 0.00 0.38 0.00 78 1017.9
20260901133731 72 134 0.0 0.0 0.00 0.38 0.00 79 1018.0
20260901133230 71 198 0.0 0.0 0.00 0.38 0.00 81 1018.0
20260901132728 70 210 0.0 0.0 0.00 0.38 0.00 83 1017.9
20260901132230 69 212 0.0 0.0 0.00 0.38 0.00 84 1017.8
20260901131726 69 213 0.0 0.0 0.00 0.38 0.00 85 1017.7
20260901131226 69 176 0.0 0.0 0.00 0.38 0.00 85 1017.6
20260901130726 69 176 0.0 2.0 0.00 0.38 0.00 85 1017.5
20260901130224 69 136 1.0 3.0 0.00 0.38 0.00 85 1017.4
20260901125724 69 141 1.0 3.0 0.00 0.38 0.00 86 1017.4
20260901125223 69 169 1.0 3.0 0.00 0.38 0.00 86 1017.3
20260901124940 69 201 1.0 4.0 0.00 0.38 0.00 86 1017.3
20260901124226 69 130 1.0 4.0 0.00 0.38 0.00 86 1017.2
20260901123945 69 139 0.0 1.0 0.00 0.38 0.00 87 1017.1
20260901123210 69 139 0.0 2.0 0.00 0.38 0.00 87 1017.0
20260901122704 69 139 0.0 2.0 0.00 0.38 0.00 87 1017.0
20260901122418 69 132 0.0 2.0 0.00 0.39 0.00 88 1017.0
20260901121647 68 138 0.0 0.0 0.00 0.40 0.00 88 1017.0
20260901121408 69 137 0.0 0.0 0.00 0.40 0.00 88 1016.8
20260901120857 68 130 0.0 0.0 0.00 0.40 0.00 88 1016.8
20260901120124 69 129 0.0 0.0 0.00 0.40 0.00 88 1017.0
20260901115620 69 134 0.0 1.0 0.00 0.40 0.00 87 1017.0
20260901115114 69 134 0.0 1.0 0.00 0.40 0.00 87 1017.0
20260901114604 69 134 0.0 1.0 0.00 0.40 0.00 87 1017.0
20260901114058 69 123 0.0 1.0 0.00 0.40 0.00 87 1017.0
20260901113552 69 23 0.0 0.0 0.00 0.40 0.00 87 1017.0
20260901113042 69 23 0.0 0.0 0.00 0.40 0.00 88 1017.1
20260901112536 68 23 0.0 0.0 0.00 0.40 0.00 89 1017.1
20260901112030 68 23 0.0 0.0 0.00 0.40 0.00 89 1017.1
20260901111520 68 23 0.0 0.0 0.00 0.40 0.00 89 1017.0
20260901111013 68 23 0.0 0.0 0.00 0.40 0.00 90 1016.8
20260901110508 68 23 0.0 0.0 0.00 0.40 0.00 89 1017.0
20260901105958 68 23 0.0 0.0 0.00 0.40 0.00 88 1017.0
20260901105452 68 23 0.0 0.0 0.00 0.40 0.00 88 1017.0
20260901104946 69 23 0.0 0.0 0.00 0.40 0.00 86 1016.8
20260901104916 69 23 0.0 0.0 0.00 0.40 0.00 87 1016.8
20260901103930 69 23 0.0 0.0 0.00 0.40 0.00 86 1016.8
20260901103424 69 23 0.0 0.0 0.00 0.40 0.00 85 1016.7
20260901102914 69 23 0.0 0.0 0.00 0.40 0.00 85 1016.6
20260901102408 69 23 0.0 0.0 0.00 0.40 0.00 85 1016.6
20260901101351 70 23 0.0 0.0 0.00 0.40 0.00 85 1016.6
20260901100846 70 23 0.0 0.0 0.00 0.40 0.00 85 1016.6
20260901100340 70 23 0.0 0.0 0.00 0.40 0.00 84 1016.5
20260901095830 70 23 0.0 0.0 0.00 0.40 0.00 84 1016.5
20260901095324 70 23 0.0 0.0 0.00 0.40 0.00 84 1016.6
20260901094818 70 23 0.0 0.0 0.00 0.40 0.00 83 1016.6
20260901094308 70 23 0.0 0.0 0.00 0.40 0.00 83 1016.6
20260901093802 70 23 0.0 0.0 0.00 0.40 0.00 83 1016.6
20260901093517 70 23 0.0 0.0 0.00 0.40 0.00 83 1016.6
20260901092745 70 23 0.0 0.0 0.00 0.40 0.00 83 1016.6
20260901092239 71 23 0.0 2.0 0.00 0.40 0.00 83 1016.6
20260901091734 71 23 0.0 2.0 0.00 0.40 0.00 83 1016.6
20260901091224 71 23 0.0 3.0 0.00 0.40 0.00 82 1016.6
20260901090718 71 358 0.0 3.0 0.00 0.40 0.00 82 1016.7
20260901090212 71 218 0.0 0.0 0.00 0.40 0.00 81 1016.6
20260901085702 71 218 0.0 3.0 0.00 0.40 0.00 81 1016.6
20260901085417 71 157 1.0 3.0 0.00 0.40 0.00 81 1016.6
20260901084651 71 152 1.0 3.0 0.00 0.40 0.00 82 1016.6
20260901084140 71 153 0.0 2.0 0.00 0.40 0.00 82 1016.6
20260901083909 71 191 0.0 0.0 0.00 0.40 0.00 83 1016.6
20260901083140 71 200 0.0 1.0 0.00 0.40 0.00 82 1016.7
20260901082909 71 191 0.0 2.0 0.00 0.40 0.00 83 1016.7
20260901082138 71 198 0.0 2.0 0.00 0.40 0.00 82 1016.7
20260901081638 71 153 0.0 2.0 0.00 0.40 0.00 83 1016.8
20260901081138 71 183 0.0 3.0 0.00 0.40 0.00 84 1016.8
20260901080636 71 161 0.0 3.0 0.00 0.40 0.00 85 1016.8
20260901080135 71 141 0.0 3.0 0.00 0.40 0.00 85 1016.8
20260901075632 71 221 0.0 0.0 0.00 0.40 0.00 85 1016.8
20260901075131 71 221 0.0 1.0 0.00 0.40 0.00 85 1016.8
20260901074627 71 214 0.0 1.0 0.00 0.40 0.00 85 1016.8
20260901074128 71 215 0.0 1.0 0.00 0.40 0.00 85 1016.8
20260901073628 71 80 0.0 0.0 0.00 0.40 0.00 85 1016.8
20260901073128 71 80 0.0 0.0 0.00 0.40 0.00 86 1016.8
20260901072628 71 80 0.0 0.0 0.00 0.40 0.00 85 1016.8
20260901072352 71 80 0.0 0.0 0.00 0.40 0.00 83 1017.0
20260901071631 72 80 0.0 0.0 0.00 0.40 0.00 82 1017.0
20260901071128 72 80 0.0 0.0 0.00 0.40 0.00 82 1017.0
20260901070624 72 80 0.0 0.0 0.00 0.40 0.00 83 1017.0
20260901070124 72 80 0.0 0.0 0.00 0.40 0.00 82 1017.0
20260901065625 72 80 0.0 0.0 0.00 0.40 0.40 83 1017.0
20260901065124 72 80 0.0 0.0 0.00 0.40 0.40 83 1017.0
20260901064622 72 80 0.0 0.0 0.00 0.40 0.40 82 1017.0
20260901064121 72 80 0.0 0.0 0.00 0.40 0.40 82 1017.1
20260901063620 72 80 0.0 0.0 0.00 0.40 0.40 81 1017.1
20260901063118 72 80 0.0 0.0 0.00 0.40 0.40 81 1017.2
20260901062617 72 80 0.0 0.0 0.00 0.40 0.40 81 1017.1
20260901062119 72 80 0.0 0.0 0.00 0.40 0.40 81 1017.1
20260901061619 73 80 0.0 0.0 0.00 0.40 0.40 81 1017.2
20260901061342 73 80 0.0 0.0 0.00 0.40 0.40 81 1017.2
20260901061100 73 80 0.0 0.0 0.00 0.40 0.40 80 1017.2
20260901060110 73 80 0.0 0.0 0.00 0.40 0.40 78 1017.1
20260901055608 74 80 0.0 0.0 0.00 0.40 0.40 78 1017.1
20260901055107 73 80 0.0 1.0 0.00 0.40 0.40 78 1017.1
20260901054827 73 80 0.0 1.0 0.00 0.40 0.40 78 1017.0
20260901054104 73 79 0.0 1.0 0.00 0.40 0.40 79 1017.0
20260901053603 73 42 0.0 0.0 0.00 0.40 0.40 80 1017.0
20260901053103 73 31 0.0 0.0 0.00 0.40 0.40 80 1017.0
20260901052602 73 30 0.0 0.0 0.00 0.40 0.40 80 1016.8
20260901052103 73 31 0.0 0.0 0.00 0.40 0.40 80 1016.8
20260901051602 74 31 0.0 2.0 0.00 0.40 0.40 79 1017.0
20260901051319 74 31 0.0 2.0 0.00 0.40 0.40 79 1017.1
20260901050559 74 30 0.0 2.0 0.00 0.40 0.40 79 1017.1
20260901050058 74 31 1.0 3.0 0.00 0.40 0.40 78 1017.1
20260901045558 74 30 2.0 4.0 0.00 0.40 0.40 77 1017.1
20260901045058 74 21 1.0 4.0 0.00 0.40 0.40 76 1017.2
20260901044558 75 0 0.0 2.0 0.00 0.40 0.40 75 1017.2
20260901044100 75 144 0.0 0.0 0.00 0.40 0.40 74 1017.2
20260901044056 75 144 0.0 0.0 0.00 0.40 0.40 72 1017.1
20260901043059 75 144 0.0 0.0 0.00 0.40 0.40 72 1017.1
20260901042558 76 144 0.0 0.0 0.00 0.40 0.40 72 1017.2
20260901042057 76 144 0.0 0.0 0.00 0.40 0.40 71 1017.2
20260901041558 76 146 0.0 1.0 0.00 0.40 0.40 71 1017.3
20260901041059 76 135 0.0 2.0 0.00 0.40 0.40 70 1017.3
20260901040557 76 141 0.0 2.0 0.00 0.40 0.40 69 1017.2
20260901040059 76 147 0.0 3.0 0.00 0.40 0.40 68 1017.2
20260901035559 76 141 1.0 3.0 0.00 0.40 0.40 68 1017.0
20260901035049 76 127 0.0 2.0 0.00 0.40 0.40 68 1017.0
20260901034816 76 174 0.0 1.0 0.00 0.40 0.40 68 1017.0
20260901034050 76 146 0.0 2.0 0.00 0.40 0.40 67 1017.0
20260901033806 76 155 0.0 2.0 0.00 0.40 0.40 68 1016.8
20260901033050 76 207 0.0 2.0 0.00 0.40 0.40 68 1016.8
20260901032549 76 86 0.0 0.0 0.00 0.40 0.40 71 1016.7
20260901032048 76 86 0.0 0.0 0.00 0.40 0.40 71 1016.7
20260901031547 76 86 0.0 0.0 0.00 0.40 0.40 70 1016.8
20260901031048 76 86 0.0 0.0 0.00 0.40 0.40 68 1016.6
20260901030549 76 86 0.0 0.0 0.00 0.40 0.40 69 1016.4
20260901030047 76 86 0.0 0.0 0.00 0.40 0.40 69 1016.3
20260901025552 76 86 0.0 0.0 0.00 0.40 0.40 68 1016.3
20260901025048 77 86 1.0 3.0 0.00 0.40 0.40 68 1016.3
20260901024549 77 86 1.0 4.0 0.00 0.40 0.40 68 1016.2
20260901024047 77 108 0.0 4.0 0.00 0.40 0.40 67 1016.0
20260901023543 77 75 0.0 0.0 0.00 0.40 0.40 67 1016.1
20260901023530 77 75 0.0 0.0 0.00 0.40 0.40 67 1016.0
20260901022802 77 91 0.0 0.0 0.00 0.40 0.40 66 1016.0
20260901022254 77 220 0.0 0.0 0.00 0.40 0.40 67 1016.0
20260901021535 77 220 0.0 0.0 0.00 0.40 0.40 66 1015.9
20260901021036 77 220 0.0 0.0 0.00 0.40 0.40 66 1015.8
20260901020535 77 220 0.0 0.0 0.00 0.40 0.40 65 1015.8
20260901020035 77 220 0.0 0.0 0.00 0.40 0.40 65 1015.5
20260901015536 78 220 0.0 0.0 0.00 0.40 0.40 64 1015.5
20260901015037 78 220 0.0 0.0 0.00 0.40 0.40 64 1015.3
20260901014534 78 220 0.0 0.0 0.00 0.40 0.40 63 1015.3
20260901014031 78 219 0.0 0.0 0.00 0.40 0.40 62 1015.2
20260901013531 78 219 0.0 0.0 0.00 0.40 0.40 61 1015.0
20260901013033 78 219 0.0 0.0 0.00 0.40 0.40 61 1015.0
20260901012535 78 219 0.0 0.0 0.00 0.40 0.40 61 1014.9
20260901012030 79 219 0.0 0.0 0.00 0.40 0.40 61 1015.0
20260901011529 79 220 0.0 0.0 0.00 0.40 0.40 60 1015.0
20260901011027 79 220 0.0 0.0 0.00 0.40 0.40 61 1015.0
20260901010529 79 221 0.0 0.0 0.00 0.40 0.40 60 1014.9
20260901010029 79 229 0.0 0.0 0.00 0.40 0.40 60 1014.9
20260901005526 80 229 0.0 0.0 0.00 0.40 0.40 59 1014.9
20260901005257 80 229 0.0 0.0 0.00 0.40 0.40 58 1014.8
20260901004524 80 229 0.0 0.0 0.00 0.40 0.40 55 1014.8
20260901004026 80 229 0.0 0.0 0.00 0.40 0.40 53 1014.8
20260901003521 81 229 0.0 0.0 0.00 0.40 0.40 53 1014.9
20260901003011 81 229 0.0 0.0 0.00 0.40 0.40 54 1014.9
20260901002952 81 243 0.0 1.0 0.00 0.40 0.40 53 1014.9